{"data":{"norad_id":53180,"epoch":"2026-05-25T03:25:00.837120Z","epoch_age_seconds":73033,"freshness":"FRESH","line1":"1 53180U 22083BA  26145.14237080 -.00001055  00000+0 -48180-4 0  9992","line2":"2 53180  53.2136 140.7792 0001064  71.1163 288.9945 15.08845232213457","mean_motion":15.08845232,"eccentricity":0.0001064,"inclination_deg":53.2136,"raan_deg":140.7792,"arg_perigee_deg":71.1163,"mean_anomaly_deg":288.9945,"bstar":-4.818e-5,"rev_number":21345,"period_min":95.437223743038,"perigee_km":538.99133610758,"apogee_km":540.46345765124,"semimajor_km":6917.8643968794,"source":"CELESTRAK","updated_at":"2026-05-25T13:38:17.326209Z"}}